Year,Month,Day,Hour,Minute,Value (Times are PST for temperature in C)
2006,06,24,00,00,14.00
2006,06,24,00,01,14.00
2006,06,24,00,02,14.00
2006,06,24,00,03,14.00
2006,06,24,00,04,14.00
2006,06,24,00,05,14.00
2006,06,24,00,06,14.00
2006,06,24,00,07,14.00
2006,06,24,00,08,14.00
2006,06,24,00,09,14.00
2006,06,24,00,10,14.00
2006,06,24,00,11,14.00
2006,06,24,00,12,14.00
2006,06,24,00,13,13.90
2006,06,24,00,14,13.90
2006,06,24,00,15,13.90
2006,06,24,00,16,13.90
2006,06,24,00,17,13.90
2006,06,24,00,18,13.80
2006,06,24,00,19,13.80
2006,06,24,00,20,13.80
2006,06,24,00,21,13.70
2006,06,24,00,22,13.70
2006,06,24,00,23,13.70
2006,06,24,00,24,13.70
2006,06,24,00,25,13.60
2006,06,24,00,26,13.60
2006,06,24,00,27,13.50
2006,06,24,00,28,13.50
2006,06,24,00,29,13.50
2006,06,24,00,30,13.40
2006,06,24,00,31,13.40
2006,06,24,00,32,13.30
2006,06,24,00,33,13.30
2006,06,24,00,34,13.30
2006,06,24,00,35,13.30
2006,06,24,00,36,13.30
2006,06,24,00,37,13.30
2006,06,24,00,38,13.30
2006,06,24,00,39,13.20
2006,06,24,00,40,13.20
2006,06,24,00,41,13.20
2006,06,24,00,42,13.20
2006,06,24,00,43,13.10
2006,06,24,00,44,13.10
2006,06,24,00,45,13.10
2006,06,24,00,46,13.00
2006,06,24,00,47,13.00
2006,06,24,00,48,13.00
2006,06,24,00,49,12.90
2006,06,24,00,50,12.90
2006,06,24,00,51,12.90
2006,06,24,00,52,12.90
2006,06,24,00,53,12.80
2006,06,24,00,54,12.80
2006,06,24,00,55,12.80
2006,06,24,00,56,12.80
2006,06,24,00,57,12.70
2006,06,24,00,58,12.70
2006,06,24,00,59,12.60
2006,06,24,01,00,12.60
2006,06,24,01,01,12.60
2006,06,24,01,02,12.60
2006,06,24,01,03,12.50
2006,06,24,01,04,12.50
2006,06,24,01,05,12.50
2006,06,24,01,06,12.50
2006,06,24,01,07,12.50
2006,06,24,01,08,12.40
2006,06,24,01,09,12.40
2006,06,24,01,10,12.40
2006,06,24,01,11,12.40
2006,06,24,01,12,12.30
2006,06,24,01,13,12.30
2006,06,24,01,14,12.30
2006,06,24,01,15,12.30
2006,06,24,01,16,12.20
2006,06,24,01,17,12.20
2006,06,24,01,18,12.10
2006,06,24,01,19,12.10
2006,06,24,01,20,12.10
2006,06,24,01,21,12.00
2006,06,24,01,22,12.00
2006,06,24,01,23,11.90
2006,06,24,01,24,11.90
2006,06,24,01,25,11.90
2006,06,24,01,26,11.90
2006,06,24,01,27,11.90
2006,06,24,01,28,11.80
2006,06,24,01,29,11.80
2006,06,24,01,30,11.80
2006,06,24,01,31,11.80
2006,06,24,01,32,11.80
2006,06,24,01,33,11.80
2006,06,24,01,34,11.80
2006,06,24,01,35,11.80
2006,06,24,01,36,11.80
2006,06,24,01,37,11.80
2006,06,24,01,38,11.80
2006,06,24,01,39,11.80
2006,06,24,01,40,11.80
2006,06,24,01,41,11.80
2006,06,24,01,42,11.80
2006,06,24,01,43,11.80
2006,06,24,01,44,11.70
2006,06,24,01,45,11.70
2006,06,24,01,46,11.70
2006,06,24,01,47,11.70
2006,06,24,01,48,11.70
2006,06,24,01,49,11.70
2006,06,24,01,50,11.70
2006,06,24,01,51,11.70
2006,06,24,01,52,11.70
2006,06,24,01,53,11.70
2006,06,24,01,54,11.70
2006,06,24,01,55,11.70
2006,06,24,01,56,11.70
2006,06,24,01,57,11.70
2006,06,24,01,58,11.70
2006,06,24,01,59,11.70
2006,06,24,02,00,11.70
2006,06,24,02,01,11.70
2006,06,24,02,02,11.70
2006,06,24,02,03,11.70
2006,06,24,02,04,11.70
2006,06,24,02,05,11.70
2006,06,24,02,06,11.70
2006,06,24,02,07,11.70
2006,06,24,02,08,11.70
2006,06,24,02,09,11.70
2006,06,24,02,10,11.70
2006,06,24,02,11,11.70
2006,06,24,02,12,11.70
2006,06,24,02,13,11.70
2006,06,24,02,14,11.70
2006,06,24,02,15,11.70
2006,06,24,02,16,11.70
2006,06,24,02,17,11.60
2006,06,24,02,18,11.60
2006,06,24,02,19,11.60
2006,06,24,02,20,11.60
2006,06,24,02,21,11.60
2006,06,24,02,22,11.60
2006,06,24,02,23,11.60
2006,06,24,02,24,11.60
2006,06,24,02,25,11.60
2006,06,24,02,26,11.60
2006,06,24,02,27,11.60
2006,06,24,02,28,11.60
2006,06,24,02,29,11.50
2006,06,24,02,30,11.40
2006,06,24,02,31,11.40
2006,06,24,02,32,11.40
2006,06,24,02,33,11.40
2006,06,24,02,34,11.40
2006,06,24,02,35,11.40
2006,06,24,02,36,11.40
2006,06,24,02,37,11.40
2006,06,24,02,38,11.30
2006,06,24,02,39,11.30
2006,06,24,02,40,11.30
2006,06,24,02,41,11.30
2006,06,24,02,42,11.20
2006,06,24,02,43,11.20
2006,06,24,02,44,11.20
2006,06,24,02,45,11.20
2006,06,24,02,46,11.10
2006,06,24,02,47,11.10
2006,06,24,02,48,11.10
2006,06,24,02,49,11.10
2006,06,24,02,50,11.10
2006,06,24,02,51,11.10
2006,06,24,02,52,11.10
2006,06,24,02,53,11.10
2006,06,24,02,54,11.00
2006,06,24,02,55,10.90
2006,06,24,02,56,10.90
2006,06,24,02,57,10.90
2006,06,24,02,58,10.90
2006,06,24,02,59,10.90
2006,06,24,03,00,10.90
2006,06,24,03,01,10.90
2006,06,24,03,02,10.90
2006,06,24,03,03,10.90
2006,06,24,03,04,10.80
2006,06,24,03,05,10.80
2006,06,24,03,06,10.80
2006,06,24,03,07,10.80
2006,06,24,03,08,10.70
2006,06,24,03,09,10.70
2006,06,24,03,10,10.70
2006,06,24,03,11,10.70
2006,06,24,03,12,10.70
2006,06,24,03,13,10.60
2006,06,24,03,14,10.60
2006,06,24,03,15,10.60
2006,06,24,03,16,10.60
2006,06,24,03,17,10.60
2006,06,24,03,18,10.60
2006,06,24,03,19,10.60
2006,06,24,03,20,10.60
2006,06,24,03,21,10.60
2006,06,24,03,22,10.60
2006,06,24,03,23,10.60
2006,06,24,03,24,10.60
2006,06,24,03,25,10.60
2006,06,24,03,26,10.60
2006,06,24,03,27,10.60
2006,06,24,03,28,10.60
2006,06,24,03,29,10.60
2006,06,24,03,30,10.50
2006,06,24,03,31,10.40
2006,06,24,03,32,10.40
2006,06,24,03,33,10.40
2006,06,24,03,34,10.40
2006,06,24,03,35,10.40
2006,06,24,03,36,10.40
2006,06,24,03,37,10.40
2006,06,24,03,38,10.40
2006,06,24,03,39,10.40
2006,06,24,03,40,10.40
2006,06,24,03,41,10.40
2006,06,24,03,42,10.40
2006,06,24,03,43,10.30
2006,06,24,03,44,10.30
2006,06,24,03,45,10.30
2006,06,24,03,46,10.30
2006,06,24,03,47,10.30
2006,06,24,03,48,10.30
2006,06,24,03,49,10.30
2006,06,24,03,50,10.30
2006,06,24,03,51,10.30
2006,06,24,03,52,10.40
2006,06,24,03,53,10.40
2006,06,24,03,54,10.40
2006,06,24,03,55,10.40
2006,06,24,03,56,10.40
2006,06,24,03,57,10.50
2006,06,24,03,58,10.60
2006,06,24,03,59,10.60
2006,06,24,04,00,10.60
2006,06,24,04,01,10.60
2006,06,24,04,02,10.60
2006,06,24,04,03,10.60
2006,06,24,04,04,10.50
2006,06,24,04,05,10.40
2006,06,24,04,06,10.40
2006,06,24,04,07,10.40
2006,06,24,04,08,10.40
2006,06,24,04,09,10.40
2006,06,24,04,10,10.40
2006,06,24,04,11,10.30
2006,06,24,04,12,10.30
2006,06,24,04,13,10.30
2006,06,24,04,14,10.30
2006,06,24,04,15,10.20
2006,06,24,04,16,10.20
2006,06,24,04,17,10.20
2006,06,24,04,18,10.20
2006,06,24,04,19,10.20
2006,06,24,04,20,10.10
2006,06,24,04,21,10.10
2006,06,24,04,22,10.10
2006,06,24,04,23,10.10
2006,06,24,04,24,10.10
2006,06,24,04,25,10.10
2006,06,24,04,26,10.10
2006,06,24,04,27,10.10
2006,06,24,04,28,10.00
2006,06,24,04,29,9.90
2006,06,24,04,30,9.90
2006,06,24,04,31,9.90
2006,06,24,04,32,9.90
2006,06,24,04,33,9.90
2006,06,24,04,34,9.90
2006,06,24,04,35,9.90
2006,06,24,04,36,9.80
2006,06,24,04,37,9.80
2006,06,24,04,38,9.80
2006,06,24,04,39,9.80
2006,06,24,04,40,9.70
2006,06,24,04,41,9.70
2006,06,24,04,42,9.70
2006,06,24,04,43,9.70
2006,06,24,04,44,9.70
2006,06,24,04,45,9.70
2006,06,24,04,46,9.70
2006,06,24,04,47,9.70
2006,06,24,04,48,9.70
2006,06,24,04,49,9.70
2006,06,24,04,50,9.70
2006,06,24,04,51,9.70
2006,06,24,04,52,9.70
2006,06,24,04,53,9.70
2006,06,24,04,54,9.70
2006,06,24,04,55,9.70
2006,06,24,04,56,9.70
2006,06,24,04,57,9.70
2006,06,24,04,58,9.70
2006,06,24,04,59,9.70
2006,06,24,05,00,9.70
2006,06,24,05,01,9.70
2006,06,24,05,02,9.70
2006,06,24,05,03,9.70
2006,06,24,05,04,9.70
2006,06,24,05,05,9.70
2006,06,24,05,06,9.70
2006,06,24,05,07,9.80
2006,06,24,05,08,9.80
2006,06,24,05,09,9.80
2006,06,24,05,10,9.80
2006,06,24,05,11,9.80
2006,06,24,05,12,9.80
2006,06,24,05,13,9.80
2006,06,24,05,14,9.80
2006,06,24,05,15,9.80
2006,06,24,05,16,9.80
2006,06,24,05,17,9.80
2006,06,24,05,18,9.80
2006,06,24,05,19,9.70
2006,06,24,05,20,9.70
2006,06,24,05,21,9.70
2006,06,24,05,22,9.70
2006,06,24,05,23,9.70
2006,06,24,05,24,9.70
2006,06,24,05,25,9.70
2006,06,24,05,26,9.70
2006,06,24,05,27,9.70
2006,06,24,05,28,9.70
2006,06,24,05,29,9.70
2006,06,24,05,30,9.70
2006,06,24,05,31,9.70
2006,06,24,05,32,9.70
2006,06,24,05,33,9.70
2006,06,24,05,34,9.70
2006,06,24,05,35,9.60
2006,06,24,05,36,9.60
2006,06,24,05,37,9.60
2006,06,24,05,38,9.60
2006,06,24,05,39,9.60
2006,06,24,05,40,9.60
2006,06,24,05,41,9.60
2006,06,24,05,42,9.70
2006,06,24,05,43,9.70
2006,06,24,05,44,9.70
2006,06,24,05,45,9.80
2006,06,24,05,46,9.80
2006,06,24,05,47,9.90
2006,06,24,05,48,9.90
2006,06,24,05,49,9.90
2006,06,24,05,50,9.90
2006,06,24,05,51,9.90
2006,06,24,05,52,9.90
2006,06,24,05,53,10.00
2006,06,24,05,54,10.10
2006,06,24,05,55,10.10
2006,06,24,05,56,10.10
2006,06,24,05,57,10.10
2006,06,24,05,58,10.10
2006,06,24,05,59,10.10
2006,06,24,06,00,10.10
2006,06,24,06,01,10.10
2006,06,24,06,02,10.10
2006,06,24,06,03,10.20
2006,06,24,06,04,10.20
2006,06,24,06,05,10.20
2006,06,24,06,06,10.20
2006,06,24,06,07,10.20
2006,06,24,06,08,10.20
2006,06,24,06,09,10.20
2006,06,24,06,10,10.20
2006,06,24,06,11,10.30
2006,06,24,06,12,10.30
2006,06,24,06,13,10.30
2006,06,24,06,14,10.30
2006,06,24,06,15,10.30
2006,06,24,06,16,10.40
2006,06,24,06,17,10.40
2006,06,24,06,18,10.40
2006,06,24,06,19,10.40
2006,06,24,06,20,10.40
2006,06,24,06,21,10.40
2006,06,24,06,22,10.40
2006,06,24,06,23,10.40
2006,06,24,06,24,10.50
2006,06,24,06,25,10.60
2006,06,24,06,26,10.60
2006,06,24,06,27,10.60
2006,06,24,06,28,10.60
2006,06,24,06,29,10.60
2006,06,24,06,30,10.60
2006,06,24,06,31,10.70
2006,06,24,06,32,10.70
2006,06,24,06,33,10.70
2006,06,24,06,34,10.80
2006,06,24,06,35,10.80
2006,06,24,06,36,10.90
2006,06,24,06,37,10.90
2006,06,24,06,38,10.90
2006,06,24,06,39,11.00
2006,06,24,06,40,11.10
2006,06,24,06,41,11.10
2006,06,24,06,42,11.20
2006,06,24,06,43,11.40
2006,06,24,06,44,11.50
2006,06,24,06,45,11.60
2006,06,24,06,46,11.80
2006,06,24,06,47,11.80
2006,06,24,06,48,12.00
2006,06,24,06,49,12.10
2006,06,24,06,50,12.20
2006,06,24,06,51,12.30
2006,06,24,06,52,12.30
2006,06,24,06,53,12.40
2006,06,24,06,54,12.50
2006,06,24,06,55,12.60
2006,06,24,06,56,12.60
2006,06,24,06,57,12.70
2006,06,24,06,58,12.80
2006,06,24,06,59,12.80
2006,06,24,07,00,12.80
2006,06,24,07,01,12.90
2006,06,24,07,02,13.00
2006,06,24,07,03,13.00
2006,06,24,07,04,13.10
2006,06,24,07,05,13.10
2006,06,24,07,06,13.20
2006,06,24,07,07,13.20
2006,06,24,07,08,13.30
2006,06,24,07,09,13.30
2006,06,24,07,10,13.40
2006,06,24,07,11,13.40
2006,06,24,07,12,13.50
2006,06,24,07,13,13.60
2006,06,24,07,14,13.60
2006,06,24,07,15,13.70
2006,06,24,07,16,13.90
2006,06,24,07,17,14.00
2006,06,24,07,18,14.20
2006,06,24,07,19,14.30
2006,06,24,07,20,14.40
2006,06,24,07,21,14.50
2006,06,24,07,22,14.60
2006,06,24,07,23,14.70
2006,06,24,07,24,14.80
2006,06,24,07,25,14.80
2006,06,24,07,26,14.90
2006,06,24,07,27,14.90
2006,06,24,07,28,15.00
2006,06,24,07,29,15.10
2006,06,24,07,30,15.10
2006,06,24,07,31,15.20
2006,06,24,07,32,15.20
2006,06,24,07,33,15.30
2006,06,24,07,34,15.40
2006,06,24,07,35,15.60
2006,06,24,07,36,15.70
2006,06,24,07,37,15.90
2006,06,24,07,38,16.00
2006,06,24,07,39,16.10
2006,06,24,07,40,16.30
2006,06,24,07,41,16.40
2006,06,24,07,42,16.60
2006,06,24,07,43,16.80
2006,06,24,07,44,16.90
2006,06,24,07,45,17.10
2006,06,24,07,46,17.30
2006,06,24,07,47,17.40
2006,06,24,07,48,17.50
2006,06,24,07,49,17.60
2006,06,24,07,50,17.70
2006,06,24,07,51,17.80
2006,06,24,07,52,17.90
2006,06,24,07,53,18.00
2006,06,24,07,54,18.10
2006,06,24,07,55,18.20
2006,06,24,07,56,18.30
2006,06,24,07,57,18.30
2006,06,24,07,58,18.40
2006,06,24,07,59,18.50
2006,06,24,08,00,18.60
2006,06,24,08,01,18.60
2006,06,24,08,02,18.60
2006,06,24,08,03,18.70
2006,06,24,08,04,18.70
2006,06,24,08,05,18.80
2006,06,24,08,06,18.90
2006,06,24,08,07,18.90
2006,06,24,08,08,18.90
2006,06,24,08,09,18.90
2006,06,24,08,10,18.90
2006,06,24,08,11,18.90
2006,06,24,08,12,18.90
2006,06,24,08,13,18.90
2006,06,24,08,14,18.90
2006,06,24,08,15,18.90
2006,06,24,08,16,19.00
2006,06,24,08,17,19.10
2006,06,24,08,18,19.00
2006,06,24,08,19,18.90
2006,06,24,08,20,19.00
2006,06,24,08,21,19.00
2006,06,24,08,22,18.90
2006,06,24,08,23,18.90
2006,06,24,08,24,18.90
2006,06,24,08,25,18.90
2006,06,24,08,26,18.90
2006,06,24,08,27,18.90
2006,06,24,08,28,19.00
2006,06,24,08,29,19.10
2006,06,24,08,30,19.10
2006,06,24,08,31,19.10
2006,06,24,08,32,19.20
2006,06,24,08,33,19.20
2006,06,24,08,34,19.20
2006,06,24,08,35,19.10
2006,06,24,08,36,19.20
2006,06,24,08,37,19.30
2006,06,24,08,38,19.30
2006,06,24,08,39,19.40
2006,06,24,08,40,19.40
2006,06,24,08,41,19.40
2006,06,24,08,42,19.40
2006,06,24,08,43,19.30
2006,06,24,08,44,19.30
2006,06,24,08,45,19.30
2006,06,24,08,46,19.40
2006,06,24,08,47,19.40
2006,06,24,08,48,19.40
2006,06,24,08,49,19.40
2006,06,24,08,50,19.50
2006,06,24,08,51,19.60
2006,06,24,08,52,19.70
2006,06,24,08,53,19.70
2006,06,24,08,54,19.70
2006,06,24,08,55,19.70
2006,06,24,08,56,19.70
2006,06,24,08,57,19.70
2006,06,24,08,58,19.70
2006,06,24,08,59,19.60
2006,06,24,09,00,19.60
2006,06,24,09,01,19.50
2006,06,24,09,02,19.50
2006,06,24,09,03,19.50
2006,06,24,09,04,19.60
2006,06,24,09,05,19.60
2006,06,24,09,06,19.60
2006,06,24,09,07,19.70
2006,06,24,09,08,19.70
2006,06,24,09,09,19.80
2006,06,24,09,10,19.90
2006,06,24,09,11,20.00
2006,06,24,09,12,20.10
2006,06,24,09,13,20.20
2006,06,24,09,14,20.20
2006,06,24,09,15,20.20
2006,06,24,09,16,20.10
2006,06,24,09,17,20.10
2006,06,24,09,18,20.20
2006,06,24,09,19,20.20
2006,06,24,09,20,20.20
2006,06,24,09,21,20.20
2006,06,24,09,22,20.20
2006,06,24,09,23,20.20
2006,06,24,09,24,20.20
2006,06,24,09,25,20.20
2006,06,24,09,26,20.20
2006,06,24,09,27,20.20
2006,06,24,09,28,20.10
2006,06,24,09,29,20.10
2006,06,24,09,30,20.10
2006,06,24,09,31,20.10
2006,06,24,09,32,20.00
2006,06,24,09,33,20.10
2006,06,24,09,34,20.20
2006,06,24,09,35,20.30
2006,06,24,09,36,20.30
2006,06,24,09,37,20.40
2006,06,24,09,38,20.40
2006,06,24,09,39,20.40
2006,06,24,09,40,20.30
2006,06,24,09,41,20.30
2006,06,24,09,42,20.30
2006,06,24,09,43,20.40
2006,06,24,09,44,20.40
2006,06,24,09,45,20.50
2006,06,24,09,46,20.50
2006,06,24,09,47,20.60
2006,06,24,09,48,20.70
2006,06,24,09,49,20.70
2006,06,24,09,50,20.80
2006,06,24,09,51,20.80
2006,06,24,09,52,20.90
2006,06,24,09,53,20.90
2006,06,24,09,54,21.00
2006,06,24,09,55,21.00
2006,06,24,09,56,21.00
2006,06,24,09,57,21.10
2006,06,24,09,58,21.10
2006,06,24,09,59,21.10
2006,06,24,10,00,21.20
2006,06,24,10,01,21.20
2006,06,24,10,02,21.20
2006,06,24,10,03,21.20
2006,06,24,10,04,21.10
2006,06,24,10,05,21.20
2006,06,24,10,06,21.30
2006,06,24,10,07,21.30
2006,06,24,10,08,21.30
2006,06,24,10,09,21.30
2006,06,24,10,10,21.30
2006,06,24,10,11,21.30
2006,06,24,10,12,21.30
2006,06,24,10,13,21.30
2006,06,24,10,14,21.40
2006,06,24,10,15,21.60
2006,06,24,10,16,21.60
2006,06,24,10,17,21.60
2006,06,24,10,18,21.60
2006,06,24,10,19,21.40
2006,06,24,10,20,21.30
2006,06,24,10,21,21.20
2006,06,24,10,22,21.20
2006,06,24,10,23,21.10
2006,06,24,10,24,21.10
2006,06,24,10,25,21.10
2006,06,24,10,26,21.10
2006,06,24,10,27,21.30
2006,06,24,10,28,21.50
2006,06,24,10,29,21.50
2006,06,24,10,30,21.40
2006,06,24,10,31,21.40
2006,06,24,10,32,21.30
2006,06,24,10,33,21.30
2006,06,24,10,34,21.30
2006,06,24,10,35,21.30
2006,06,24,10,36,21.30
2006,06,24,10,37,21.40
2006,06,24,10,38,21.40
2006,06,24,10,39,21.30
2006,06,24,10,40,21.30
2006,06,24,10,41,21.30
2006,06,24,10,42,21.30
2006,06,24,10,43,21.30
2006,06,24,10,44,21.30
2006,06,24,10,45,21.30
2006,06,24,10,46,21.30
2006,06,24,10,47,21.30
2006,06,24,10,48,21.40
2006,06,24,10,49,21.60
2006,06,24,10,50,21.60
2006,06,24,10,51,21.60
2006,06,24,10,52,21.50
2006,06,24,10,53,21.40
2006,06,24,10,54,21.30
2006,06,24,10,55,21.40
2006,06,24,10,56,21.40
2006,06,24,10,57,21.40
2006,06,24,10,58,21.40
2006,06,24,10,59,21.40
2006,06,24,11,00,21.40
2006,06,24,11,01,21.50
2006,06,24,11,02,21.60
2006,06,24,11,03,21.60
2006,06,24,11,04,21.60
2006,06,24,11,05,21.70
2006,06,24,11,06,21.80
2006,06,24,11,07,21.80
2006,06,24,11,08,21.60
2006,06,24,11,09,21.70
2006,06,24,11,10,21.70
2006,06,24,11,11,21.70
2006,06,24,11,12,21.70
2006,06,24,11,13,21.70
2006,06,24,11,14,21.70
2006,06,24,11,15,21.80
2006,06,24,11,16,21.80
2006,06,24,11,17,21.80
2006,06,24,11,18,21.90
2006,06,24,11,19,22.00
2006,06,24,11,20,22.00
2006,06,24,11,21,22.20
2006,06,24,11,22,22.30
2006,06,24,11,23,22.30
2006,06,24,11,24,22.40
2006,06,24,11,25,22.50
2006,06,24,11,26,22.60
2006,06,24,11,27,22.60
2006,06,24,11,28,22.70
2006,06,24,11,29,22.70
2006,06,24,11,30,22.70
2006,06,24,11,31,22.70
2006,06,24,11,32,22.60
2006,06,24,11,33,22.60
2006,06,24,11,34,22.60
2006,06,24,11,35,22.70
2006,06,24,11,36,22.90
2006,06,24,11,37,22.90
2006,06,24,11,38,22.90
2006,06,24,11,39,23.00
2006,06,24,11,40,23.10
2006,06,24,11,41,23.30
2006,06,24,11,42,23.30
2006,06,24,11,43,23.20
2006,06,24,11,44,23.10
2006,06,24,11,45,23.10
2006,06,24,11,46,23.10
2006,06,24,11,47,23.00
2006,06,24,11,48,22.90
2006,06,24,11,49,22.90
2006,06,24,11,50,22.80
2006,06,24,11,51,22.70
2006,06,24,11,52,22.70
2006,06,24,11,53,22.70
2006,06,24,11,54,22.80
2006,06,24,11,55,22.80
2006,06,24,11,56,22.60
2006,06,24,11,57,22.60
2006,06,24,11,58,22.70
2006,06,24,11,59,22.80
2006,06,24,12,00,22.90
2006,06,24,12,01,22.90
2006,06,24,12,02,22.90
2006,06,24,12,03,22.90
2006,06,24,12,04,22.90
2006,06,24,12,05,22.90
2006,06,24,12,06,22.90
2006,06,24,12,07,22.90
2006,06,24,12,08,22.90
2006,06,24,12,09,22.90
2006,06,24,12,10,23.00
2006,06,24,12,11,23.10
2006,06,24,12,12,23.10
2006,06,24,12,13,23.00
2006,06,24,12,14,23.10
2006,06,24,12,15,23.30
2006,06,24,12,16,23.40
2006,06,24,12,17,23.40
2006,06,24,12,18,23.40
2006,06,24,12,19,23.30
2006,06,24,12,20,23.30
2006,06,24,12,21,23.30
2006,06,24,12,22,23.40
2006,06,24,12,23,23.40
2006,06,24,12,24,23.30
2006,06,24,12,25,23.30
2006,06,24,12,26,23.20
2006,06,24,12,27,23.20
2006,06,24,12,28,23.20
2006,06,24,12,29,23.10
2006,06,24,12,30,23.00
2006,06,24,12,31,22.90
2006,06,24,12,32,23.00
2006,06,24,12,33,23.10
2006,06,24,12,34,23.20
2006,06,24,12,35,23.10
2006,06,24,12,36,23.10
2006,06,24,12,37,23.10
2006,06,24,12,38,23.10
2006,06,24,12,39,23.10
2006,06,24,12,40,23.10
2006,06,24,12,41,22.90
2006,06,24,12,42,23.00
2006,06,24,12,43,23.10
2006,06,24,12,44,23.10
2006,06,24,12,45,22.90
2006,06,24,12,46,22.90
2006,06,24,12,47,22.90
2006,06,24,12,48,23.00
2006,06,24,12,49,23.10
2006,06,24,12,50,23.20
2006,06,24,12,51,23.20
2006,06,24,12,52,23.20
2006,06,24,12,53,23.30
2006,06,24,12,54,23.40
2006,06,24,12,55,23.40
2006,06,24,12,56,23.30
2006,06,24,12,57,23.30
2006,06,24,12,58,23.30
2006,06,24,12,59,23.20
2006,06,24,13,00,23.20
2006,06,24,13,01,23.20
2006,06,24,13,02,23.20
2006,06,24,13,03,23.20
2006,06,24,13,04,23.20
2006,06,24,13,05,23.30
2006,06,24,13,06,23.40
2006,06,24,13,07,23.50
2006,06,24,13,08,23.60
2006,06,24,13,09,23.70
2006,06,24,13,10,23.70
2006,06,24,13,11,23.70
2006,06,24,13,12,23.70
2006,06,24,13,13,23.70
2006,06,24,13,14,23.60
2006,06,24,13,15,23.50
2006,06,24,13,16,23.50
2006,06,24,13,17,23.60
2006,06,24,13,18,23.70
2006,06,24,13,19,23.70
2006,06,24,13,20,23.80
2006,06,24,13,21,23.80
2006,06,24,13,22,23.90
2006,06,24,13,23,24.10
2006,06,24,13,24,24.00
2006,06,24,13,25,23.90
2006,06,24,13,26,24.00
2006,06,24,13,27,24.10
2006,06,24,13,28,24.10
2006,06,24,13,29,24.10
2006,06,24,13,30,24.10
2006,06,24,13,31,24.10
2006,06,24,13,32,24.00
2006,06,24,13,33,23.80
2006,06,24,13,34,23.90
2006,06,24,13,35,23.80
2006,06,24,13,36,23.80
2006,06,24,13,37,23.80
2006,06,24,13,38,23.70
2006,06,24,13,39,23.60
2006,06,24,13,40,23.60
2006,06,24,13,41,23.70
2006,06,24,13,42,23.80
2006,06,24,13,43,23.80
2006,06,24,13,44,23.90
2006,06,24,13,45,24.00
2006,06,24,13,46,24.10
2006,06,24,13,47,24.10
2006,06,24,13,48,24.10
2006,06,24,13,49,24.10
2006,06,24,13,50,24.10
2006,06,24,13,51,24.10
2006,06,24,13,52,24.10
2006,06,24,13,53,24.20
2006,06,24,13,54,24.20
2006,06,24,13,55,24.30
2006,06,24,13,56,24.30
2006,06,24,13,57,24.30
2006,06,24,13,58,24.30
2006,06,24,13,59,24.30
2006,06,24,14,00,24.20
2006,06,24,14,01,24.20
2006,06,24,14,02,24.30
2006,06,24,14,03,24.40
2006,06,24,14,04,24.50
2006,06,24,14,05,24.60
2006,06,24,14,06,24.60
2006,06,24,14,07,24.60
2006,06,24,14,08,24.60
2006,06,24,14,09,24.50
2006,06,24,14,10,24.40
2006,06,24,14,11,24.40
2006,06,24,14,12,24.40
2006,06,24,14,13,24.40
2006,06,24,14,14,24.40
2006,06,24,14,15,24.50
2006,06,24,14,16,24.40
2006,06,24,14,17,24.40
2006,06,24,14,18,24.50
2006,06,24,14,19,24.50
2006,06,24,14,20,24.50
2006,06,24,14,21,24.50
2006,06,24,14,22,24.50
2006,06,24,14,23,24.50
2006,06,24,14,24,24.50
2006,06,24,14,25,24.50
2006,06,24,14,26,24.40
2006,06,24,14,27,24.40
2006,06,24,14,28,24.50
2006,06,24,14,29,24.50
2006,06,24,14,30,24.40
2006,06,24,14,31,24.50
2006,06,24,14,32,24.50
2006,06,24,14,33,24.70
2006,06,24,14,34,24.80
2006,06,24,14,35,24.80
2006,06,24,14,36,24.90
2006,06,24,14,37,25.00
2006,06,24,14,38,25.00
2006,06,24,14,39,24.90
2006,06,24,14,40,24.90
2006,06,24,14,41,25.00
2006,06,24,14,42,25.00
2006,06,24,14,43,24.90
2006,06,24,14,44,24.80
2006,06,24,14,45,24.80
2006,06,24,14,46,24.80
2006,06,24,14,47,24.80
2006,06,24,14,48,24.90
2006,06,24,14,49,25.00
2006,06,24,14,50,25.00
2006,06,24,14,51,25.00
2006,06,24,14,52,24.90
2006,06,24,14,53,25.00
2006,06,24,14,54,25.00
2006,06,24,14,55,25.10
2006,06,24,14,56,25.10
2006,06,24,14,57,25.10
2006,06,24,14,58,25.10
2006,06,24,14,59,24.90
2006,06,24,15,00,24.80
2006,06,24,15,01,24.80
2006,06,24,15,02,24.70
2006,06,24,15,03,24.80
2006,06,24,15,04,24.80
2006,06,24,15,05,24.80
2006,06,24,15,06,24.80
2006,06,24,15,07,24.80
2006,06,24,15,08,24.80
2006,06,24,15,09,24.90
2006,06,24,15,10,25.00
2006,06,24,15,11,25.00
2006,06,24,15,12,24.90
2006,06,24,15,13,24.90
2006,06,24,15,14,24.90
2006,06,24,15,15,24.90
2006,06,24,15,16,24.90
2006,06,24,15,17,25.00
2006,06,24,15,18,25.00
2006,06,24,15,19,25.10
2006,06,24,15,20,25.20
2006,06,24,15,21,25.20
2006,06,24,15,22,25.20
2006,06,24,15,23,25.30
2006,06,24,15,24,25.20
2006,06,24,15,25,25.20
2006,06,24,15,26,25.20
2006,06,24,15,27,25.20
2006,06,24,15,28,25.20
2006,06,24,15,29,25.20
2006,06,24,15,30,25.10
2006,06,24,15,31,25.10
2006,06,24,15,32,25.20
2006,06,24,15,33,25.20
2006,06,24,15,34,25.20
2006,06,24,15,35,25.20
2006,06,24,15,36,25.20
2006,06,24,15,37,25.20
2006,06,24,15,38,25.20
2006,06,24,15,39,25.30
2006,06,24,15,40,25.40
2006,06,24,15,41,25.40
2006,06,24,15,42,25.40
2006,06,24,15,43,25.40
2006,06,24,15,44,25.40
2006,06,24,15,45,25.50
2006,06,24,15,46,25.40
2006,06,24,15,47,25.40
2006,06,24,15,48,25.30
2006,06,24,15,49,25.30
2006,06,24,15,50,25.40
2006,06,24,15,51,25.50
2006,06,24,15,52,25.60
2006,06,24,15,53,25.60
2006,06,24,15,54,25.60
2006,06,24,15,55,25.60
2006,06,24,15,56,25.50
2006,06,24,15,57,25.50
2006,06,24,15,58,25.50
2006,06,24,15,59,25.50
2006,06,24,16,00,25.50
2006,06,24,16,01,25.50
2006,06,24,16,02,25.40
2006,06,24,16,03,25.40
2006,06,24,16,04,25.40
2006,06,24,16,05,25.50
2006,06,24,16,06,25.50
2006,06,24,16,07,25.50
2006,06,24,16,08,25.50
2006,06,24,16,09,25.60
2006,06,24,16,10,25.80
2006,06,24,16,11,25.90
2006,06,24,16,12,26.10
2006,06,24,16,13,26.20
2006,06,24,16,14,26.20
2006,06,24,16,15,26.20
2006,06,24,16,16,26.10
2006,06,24,16,17,26.10
2006,06,24,16,18,26.00
2006,06,24,16,19,25.90
2006,06,24,16,20,25.90
2006,06,24,16,21,25.90
2006,06,24,16,22,25.80
2006,06,24,16,23,25.80
2006,06,24,16,24,25.80
2006,06,24,16,25,25.80
2006,06,24,16,26,25.90
2006,06,24,16,27,25.90
2006,06,24,16,28,25.80
2006,06,24,16,29,25.80
2006,06,24,16,30,25.80
2006,06,24,16,31,25.90
2006,06,24,16,32,26.00
2006,06,24,16,33,26.10
2006,06,24,16,34,26.20
2006,06,24,16,35,26.20
2006,06,24,16,36,26.10
2006,06,24,16,37,26.10
2006,06,24,16,38,26.00
2006,06,24,16,39,26.00
2006,06,24,16,40,26.10
2006,06,24,16,41,26.20
2006,06,24,16,42,26.30
2006,06,24,16,43,26.20
2006,06,24,16,44,26.20
2006,06,24,16,45,26.10
2006,06,24,16,46,26.20
2006,06,24,16,47,26.20
2006,06,24,16,48,26.30
2006,06,24,16,49,26.40
2006,06,24,16,50,26.40
2006,06,24,16,51,26.40
2006,06,24,16,52,26.40
2006,06,24,16,53,26.30
2006,06,24,16,54,26.20
2006,06,24,16,55,26.30
2006,06,24,16,56,26.30
2006,06,24,16,57,26.40
2006,06,24,16,58,26.40
2006,06,24,16,59,26.40
2006,06,24,17,00,26.40
2006,06,24,17,01,26.40
2006,06,24,17,02,26.40
2006,06,24,17,03,26.50
2006,06,24,17,04,26.60
2006,06,24,17,05,26.60
2006,06,24,17,06,26.70
2006,06,24,17,07,26.70
2006,06,24,17,08,26.70
2006,06,24,17,09,26.80
2006,06,24,17,10,26.90
2006,06,24,17,11,27.00
2006,06,24,17,12,27.10
2006,06,24,17,13,27.10
2006,06,24,17,14,27.20
2006,06,24,17,15,27.20
2006,06,24,17,16,27.20
2006,06,24,17,17,27.20
2006,06,24,17,18,27.30
2006,06,24,17,19,27.30
2006,06,24,17,20,27.30
2006,06,24,17,21,27.30
2006,06,24,17,22,27.40
2006,06,24,17,23,27.40